Temp
-0 -0 -0 -0 -0 -0 -0 -0 -1 -0 0 1 1 1 1 1 1 1 1 1 1 2 2 2 2 2 3
-1 -1 -1 -1 -1 -1 -1 -1 -1 -1 -0 -0 0 0 0 0 1 1 1 1 1 1 1 2 2 2 2
-2 -2 -2 -2 -2 -2 -2 -1 -1 -1 -1 -1 -1 -1 -1 -0 0 1 0 0 1 1 1 1 1 2 2
-2 -3 -3 -2 -2 -2 -2 -2 -2 -2 -3 -2 -2 -2 -1 -1 -1 -1 -1 -1 -0 0 1 1 1 1 1
-3 -2 -2 -2 -2 -2 -3 -3 -3 -3 -3 -3 -3 -3 -3 -3 -3 -2 -2 -0 0 0 0 1 1 1 1
-3 -3 -3 -2 -2 -3 -3 -4 -3 -3 -3 -4 -4 -4 -3 -3 -3 -2 -1 -1 -0 -0 0 0 1 1 1
-2 -2 -2 -3 -3 -4 -4 -4 -4 -4 -4 -4 -4 -4 -4 -4 -3 -2 -2 -2 -1 -1 0 0 1 1 1
-3 -3 -3 -3 -3 -3 -3 -4 -4 -4 -4 -4 -4 -4 -4 -4 -4 -3 -3 -2 -1 -1 -1 -0 0 1 1
-3 -3 -3 -3 -3 -3 -4 -5 -4 -4 -4 -5 -5 -5 -5 -5 -4 -3 -3 -3 -3 -2 -1 -1 -0 1 0
-4 -4 -4 -4 -4 -5 -5 -5 -5 -5 -4 -6 -6 -6 -5 -4 -4 -5 -4 -5 -3 -3 -2 -1 -1 -0 -1
-5 -5 -5 -5 -5 -5 -5 -6 -6 -6 -6 -6 -6 -6 -6 -6 -5 -5 -5 -4 -4 -3 -3 -2 -1 -1 -1
-5 -5 -6 -6 -6 -6 -6 -7 -6 -6 -6 -6 -6 -6 -6 -6 -5 -4 -4 -4 -4 -3 -3 -2 -2 -1 -1
-6 -6 -6 -6 -7 -7 -7 -7 -7 -6 -6 -6 -6 -6 -6 -5 -5 -4 -3 -3 -3 -3 -2 -2 -2 -1 -2
-7 -7 -7 -7 -7 -7 -7 -7 -7 -6 -5 -5 -5 -5 -5 -5 -4 -4 -3 -3 -2 -2 -2 -2 -1 -1 -2
-7 -7 -7 -7 -7 -7 -7 -7 -6 -6 -6 -5 -5 -5 -5 -4 -4 -3 -3 -3 -2 -2 -2 -2 -1 -1 -2
-8 -8 -7 -7 -8 -7 -7 -7 -7 -6 -6 -5 -5 -4 -4 -3 -2 -3 -3 -3 -2 -2 -2 -2 -1 -1 -1
-8 -8 -8 -8 -7 -8 -7 -7 -7 -6 -6 -5 -4 -4 -4 -3 -2 -2 -3 -3 -2 -2 -1 -1 -2 -1 -1
Height
783 780 776 773 768 764 760 755 750 746 742 736 732 727 722 718 713 708 705 701 698 695 693 691 689 688 686
779 776 773 768 763 757 753 749 743 739 735 730 725 719 714 710 705 700 696 692 689 686 684 681 679 678 676
773 772 767 762 756 752 747 741 737 733 728 722 718 711 706 702 697 692 688 684 680 677 674 672 669 667 665
768 765 762 757 753 745 739 736 728 725 720 712 710 703 699 694 689 684 680 676 672 668 665 662 659 658 656
763 759 755 751 748 742 736 729 721 717 711 703 701 695 689 685 680 675 671 667 663 659 655 652 649 647 645
758 753 749 745 742 738 730 724 712 711 705 696 694 686 682 677 672 667 662 657 653 649 645 642 639 636 634
754 750 743 740 736 730 724 718 710 705 703 691 684 678 674 668 663 658 653 648 644 639 636 632 629 626 623
750 743 739 734 730 724 718 712 704 700 698 686 678 669 664 659 654 648 643 639 635 631 626 622 619 615 611
743 738 733 729 724 719 713 708 697 692 690 683 673 663 657 647 642 639 637 632 626 622 617 613 609 604 599
734 730 726 722 719 715 710 703 697 686 681 679 670 666 647 639 635 632 626 622 618 613 609 604 599 594 588
729 724 720 715 711 708 705 700 693 686 676 676 665 661 658 640 628 625 621 612 609 602 597 593 589 585 578
725 719 715 709 704 700 695 691 686 679 670 668 661 656 648 639 627 617 613 607 602 595 589 583 579 575 569
721 715 710 704 698 693 687 682 676 669 663 659 655 648 643 634 623 613 606 597 593 587 581 576 570 565 557
717 711 704 699 692 688 681 675 669 658 655 652 647 642 634 626 619 607 600 595 584 580 573 566 560 555 549
713 706 700 694 687 682 677 670 665 656 647 640 637 632 625 618 609 600 592 584 578 571 566 556 548 545 538
708 702 696 689 683 676 672 666 659 651 644 636 628 620 612 607 604 594 587 579 570 563 558 549 538 533 528
703 697 690 684 678 672 666 660 652 646 639 631 624 617 607 596 588 590 581 571 562 553 548 541 532 523 518
Wind_Speed
26 27 29 32 33 31 34 32 33 33 35 31 32 36 37 36 37 38 38 37 36 36 35 35 35 35 35
23 26 27 31 32 35 30 33 35 31 28 37 35 36 37 35 36 37 36 36 36 37 38 37 37 37 36
26 26 28 30 30 28 33 31 29 32 32 35 34 35 36 34 35 36 38 37 35 36 36 35 35 36 36
24 26 24 26 26 28 27 27 33 31 34 33 32 34 33 35 36 34 34 33 32 33 34 35 35 35 36
22 26 26 23 21 24 27 31 36 33 23 36 28 35 35 33 33 34 33 33 34 34 34 35 35 35 35
24 23 23 25 24 23 31 27 11 27 22 37 30 33 32 32 33 35 36 34 36 36 34 34 33 34 35
29 28 30 27 30 29 29 25 29 32 28 32 34 33 33 34 35 35 39 36 31 30 30 30 32 34 35
29 29 29 34 31 28 28 28 32 31 26 20 33 36 34 33 37 36 31 28 29 32 33 31 31 32 35
27 29 31 32 28 29 24 23 20 27 29 25 24 31 35 37 29 24 26 33 31 31 30 32 30 34 34
28 32 26 27 27 24 25 21 22 19 21 17 27 22 9 23 19 33 30 31 31 32 30 32 30 31 31
27 25 27 27 25 25 24 23 25 25 37 28 25 27 18 20 27 30 34 36 31 36 33 29 29 31 34
23 25 24 26 28 30 33 32 31 33 40 36 27 28 27 22 17 30 34 36 30 32 33 33 32 32 33
21 25 26 30 33 30 32 31 32 34 34 32 31 32 29 27 24 32 30 35 34 27 32 32 30 31 33
25 29 30 28 30 28 28 29 28 31 31 26 25 28 29 29 29 31 32 19 34 33 32 31 32 29 31
26 27 29 28 28 29 27 26 23 25 29 32 28 29 30 32 28 30 29 30 30 31 29 32 31 27 29
27 26 26 27 27 27 25 24 23 25 25 29 30 28 26 22 23 24 26 28 31 32 30 24 27 28 27
26 28 28 26 27 26 25 24 24 24 26 27 25 20 12 13 26 17 23 30 32 30 26 25 23 30 29
Wind_Direction
300 306 308 309 308 306 305 302 300 300 301 301 300 300 299 298 296 294 294 292 290 288 287 284 281 279 276
309 310 306 305 302 302 301 301 299 302 302 301 301 300 300 299 296 295 293 292 291 289 287 285 282 279 275
301 302 302 302 300 302 302 304 304 302 301 300 300 299 302 300 298 297 295 292 290 288 287 285 281 279 277
296 300 300 303 302 301 304 306 302 301 300 296 302 299 299 300 300 297 295 294 290 288 286 284 282 279 277
297 304 303 306 302 305 302 303 300 302 297 300 304 298 296 299 297 297 298 295 293 290 287 285 283 279 276
301 300 302 302 305 304 300 302 297 309 310 301 302 296 296 297 297 299 298 297 296 293 289 287 284 281 279
300 300 300 303 307 297 291 292 295 299 303 296 302 297 299 297 298 299 299 297 296 294 292 290 286 284 281
297 299 303 303 300 301 301 298 296 299 301 288 300 296 300 298 296 298 297 298 298 297 297 293 289 286 283
300 300 302 302 304 310 306 306 299 303 304 293 298 301 303 296 298 298 297 300 300 300 300 296 292 292 290
309 311 310 304 307 305 301 296 299 303 304 310 303 311 306 296 301 302 304 301 301 300 298 297 296 295 290
310 306 305 305 305 304 300 296 294 287 292 302 298 296 284 296 299 301 300 301 301 301 302 298 296 297 294
305 303 304 304 305 305 302 299 291 284 292 292 282 288 288 289 293 301 300 299 297 295 295 297 296 296 298
304 302 303 303 305 305 305 302 300 295 292 292 287 284 281 281 286 292 298 302 297 291 298 291 292 295 295
302 303 304 306 303 304 300 303 298 300 304 301 296 290 280 280 283 288 292 286 295 296 292 290 296 292 287
306 305 303 303 300 303 299 300 297 300 303 310 309 296 282 276 283 285 289 292 293 295 299 296 294 293 286
303 301 300 300 301 302 304 301 295 300 300 302 304 303 302 292 283 280 290 289 296 299 294 284 293 300 292
303 301 299 297 304 302 302 299 297 297 296 297 297 299 302 304 309 303 296 296 297 296 297 294 292 296 297